Location: Gilevgi
(36.8751°N, 30.0581°E)
Time: 09:45:30
(UTC+00:00)

CZ-2D R/B - Pass Details

Date: 17 March 2026
Orbit: 524 x 594 km, 98.0° (Epoch: 20 April)

Event Time Altitude Azimuth Distance (km) Brightness Sun altitude
Rises 17:18:35 0° 189° (S) 2,804 6.9 -14.7°
Reaches altitude 10° 17:20:55 10° 200° (SSW) 1,914 6.2 -15.2°
Maximum altitude 17:24:37 31° 263° (W) 1,049 5.4 -15.9°
Drops below altitude 10° 17:28:23 10° 326° (NW) 1,935 6.7 -16.6°
Sets 17:30:45 0° 337° (NNW) 2,840 7.5 -17.1°
